OE1TRI-13 Weather Reports


time (UTC)temp
F
wind
direction
speed
knots
gust
knots
rain 1hr
in
rain 24hr
in
rain mn
in
humidity
%
barometer
mb
20260506140005 72 225 4.3 6.1 0.00 0.00 0.00 34 1020.0
20260506135005 73 180 6.1 6.1 0.00 0.00 0.00 32 1020.0
20260506134005 75 202 6.1 6.1 0.00 0.00 0.00 31 1020.0
20260506133005 75 180 4.3 4.3 0.00 0.00 0.00 29 1020.0
20260506132005 74 135 2.6 4.3 0.00 0.00 0.00 29 1020.0
20260506130005 73 158 2.6 4.3 0.00 0.00 0.00 32 1020.0
20260506125005 74 180 0.9 2.6 0.00 0.00 0.00 30 1020.0
20260506124004 75 225 0.9 5.2 0.00 0.00 0.00 30 1020.0
20260506123005 74 202 5.2 5.2 0.00 0.00 0.00 30 1021.0
20260506121004 73 135 7.0 8.7 0.00 0.00 0.00 33 1021.0
20260506120005 75 180 5.2 5.2 0.00 0.00 0.00 32 1021.0
20260506115005 77 180 4.3 6.1 0.00 0.00 0.00 31 1021.0
20260506114005 77 158 0.9 2.6 0.00 0.00 0.00 28 1021.0
20260506113005 73 158 0.9 0.9 0.00 0.00 0.00 31 1021.0
20260506112004 71 338 0.9 2.6 0.00 0.00 0.00 37 1021.0
20260506111005 71 68 2.6 2.6 0.00 0.00 0.00 37 1021.0
20260506110005 69 68 0.9 7.8 0.00 0.00 0.00 38 1022.0
20260506105005 68 22 5.2 7.8 0.00 0.00 0.00 41 1022.0
20260506103005 65 22 4.3 6.1 0.00 0.00 0.00 50 1022.0
20260506102004 66 315 5.2 6.1 0.00 0.00 0.00 49 1022.0
20260506100005 64 22 2.6 4.3 0.00 0.00 0.00 51 1023.0
20260506095004 61 345 4.3 4.3 0.00 0.00 0.00 55 1023.0
20260506094005 60 315 1.7 2.6 0.00 0.00 0.00 58 1023.0
20260506093005 60 315 2.6 2.6 0.00 0.00 0.00 59 1023.0
20260506092005 60 292 0.9 1.7 0.00 0.00 0.00 59 1023.0
20260506091004 61 292 2.6 4.3 0.00 0.00 0.00 59 1023.0
20260506090005 61 292 1.7 2.6 0.00 0.00 0.00 59 1023.0
20260506085005 62 0 1.7 2.6 0.00 0.00 0.00 60 1023.0
20260506084005 63 45 0.9 0.9 0.00 0.00 0.00 57 1023.0
20260506083004 64 292 0.9 0.9 0.00 0.00 0.00 51 1023.0
20260506082005 66 68 0.0 0.9 0.00 0.00 0.00 48 1023.0
20260506081005 68 270 0.9 1.7 0.00 0.00 0.00 44 1023.0
20260506073005 57 90 0.9 0.9 0.00 0.00 0.00 63 1024.0
20260506072005 56 90 0.0 0.9 0.00 0.00 0.00 65 1024.0
20260506071004 56 90 0.9 0.9 0.00 0.00 0.00 66 1024.0
20260506062005 51 112 0.9 0.9 0.00 0.00 0.00 71 1024.0
20260506061005 51 135 0.0 0.9 0.00 0.00 0.00 74 1025.1
20260506051005 45 270 0.0 0.9 0.00 0.00 0.00 83 1025.1
20260506044005 44 135 0.0 2.6 0.00 0.00 0.00 84 1025.1
20260506043005 44 135 2.6 2.6 0.00 0.00 0.00 85 1025.1
20260506042004 43 248 0.0 0.0 0.00 0.00 0.00 86 1025.1
20260506041005 43 248 0.0 0.0 0.00 0.00 0.00 86 1025.1
20260506040005 43 248 0.0 0.0 0.00 0.00 0.00 86 1025.1
20260506035005 43 248 0.0 0.0 0.00 0.00 0.00 85 1025.1
20260506034005 43 248 0.0 0.0 0.00 0.00 0.00 85 1025.1
20260506032004 44 90 0.0 0.9 0.00 0.00 0.00 83 1026.1
20260506031005 44 90 0.9 0.9 0.00 0.00 0.00 82 1026.1
20260506030005 45 202 0.9 0.9 0.00 0.00 0.00 82 1026.1
20260506025005 45 90 0.9 2.6 0.00 0.00 0.00 81 1026.1
20260506024005 45 68 2.6 2.6 0.00 0.00 0.00 80 1026.1
20260506023005 45 180 2.6 4.3 0.00 0.00 0.00 80 1026.1
20260506022005 44 180 0.9 1.7 0.00 0.00 0.00 81 1026.1
20260506021005 44 158 1.7 1.7 0.00 0.00 0.00 83 1026.1
20260506020005 44 158 0.9 0.9 0.00 0.00 0.00 80 1026.1
20260506015004 44 112 0.9 0.9 0.00 0.00 0.00 82 1026.1
20260506014005 43 135 0.0 0.0 0.00 0.00 0.00 82 1026.1
20260506013005 44 135 0.0 0.9 0.00 0.00 0.00 82 1026.1
20260506012005 44 135 0.9 0.9 0.00 0.00 0.00 81 1026.1
20260506011005 44 135 0.0 0.9 0.00 0.00 0.00 81 1026.1
20260506010005 44 135 0.9 0.9 0.00 0.00 0.00 81 1026.1
20260506005005 44 135 0.9 0.9 0.00 0.00 0.00 81 1026.1
20260506004005 44 135 0.9 0.9 0.00 0.00 0.00 82 1026.1
20260506003004 44 135 0.0 0.9 0.00 0.00 0.00 81 1026.1
20260506002005 44 135 0.9 0.9 0.00 0.00 0.00 81 1026.1
20260506001004 44 135 0.9 0.9 0.00 0.00 0.00 81 1026.1
20260506000005 45 135 0.0 0.0 0.00 0.00 0.00 81 1026.1
20260505234004 45 135 0.9 1.7 0.00 0.00 0.00 79 1026.1
20260505233005 46 158 0.0 0.0 0.00 0.00 0.00 79 1026.1
20260505232005 46 158 0.0 0.9 0.00 0.00 0.00 78 1026.1
20260505231004 46 158 0.9 0.9 0.00 0.00 0.00 80 1026.1
20260505225005 47 158 0.0 4.3 0.00 0.00 0.00 77 1026.1
20260505224004 47 135 4.3 4.3 0.00 0.00 0.00 77 1026.1
20260505223004 47 180 0.9 0.9 0.00 0.00 0.00 79 1026.1
20260505222004 48 180 0.0 2.6 0.00 0.00 0.00 77 1026.1
20260505221005 48 180 2.6 2.6 0.00 0.00 0.00 77 1026.1
20260505220005 48 158 0.9 0.9 0.00 0.00 0.00 78 1026.1
20260505215004 48 158 0.0 0.0 0.00 0.00 0.00 76 1026.1
20260505214005 49 158 0.0 0.0 0.00 0.00 0.00 75 1025.1
20260505213005 49 158 0.0 0.0 0.00 0.00 0.00 74 1025.1
20260505211005 50 135 0.9 0.9 0.00 0.00 0.00 73 1025.1
20260505210005 51 135 0.0 0.0 0.00 0.00 0.00 71 1025.1
20260505205004 51 180 0.0 0.9 0.00 0.00 0.00 70 1025.1
20260505204004 51 180 0.0 0.0 0.00 0.00 0.00 67 1025.1
20260505203005 53 180 0.0 0.9 0.00 0.00 0.00 66 1025.1
20260505201005 55 180 0.0 1.7 0.00 0.00 0.00 60 1025.1
20260505195005 54 203 0.9 0.9 0.00 0.00 0.00 63 1025.0
20260505194005 55 248 1.7 1.7 0.00 0.00 0.00 65 1024.0
20260505191005 58 180 1.7 2.6 0.00 0.00 0.00 58 1024.0
20260505190005 58 180 0.9 4.3 0.00 0.00 0.00 55 1024.0
20260505184005 57 180 0.9 1.7 0.00 0.00 0.00 64 1023.0
20260505183005 58 180 0.9 1.7 0.00 0.00 0.00 63 1023.0
20260505182004 59 180 0.9 1.7 0.00 0.00 0.00 61 1023.0
20260505181005 62 202 0.0 0.9 0.00 0.00 0.00 58 1023.0
20260505180005 66 202 0.9 0.9 0.00 0.00 0.00 51 1023.0
20260505175004 67 202 0.9 0.9 0.00 0.00 0.00 46 1023.0
20260505174004 68 292 0.9 0.9 0.00 0.00 0.00 46 1023.0
20260505171004 68 135 0.9 0.9 0.00 0.00 0.00 43 1023.0
20260505170005 73 225 0.0 0.9 0.00 0.00 0.00 44 1023.0
20260505165005 74 225 0.9 0.9 0.00 0.00 0.00 36 1023.0
20260505163005 76 225 4.3 5.2 0.00 0.00 0.00 36 1023.0
20260505162004 75 202 5.2 5.2 0.00 0.00 0.00 35 1023.0
20260505153005 64 292 0.9 2.6 0.00 0.00 0.00 53 1024.0
20260505152005 64 292 0.9 0.9 0.00 0.00 0.00 58 1024.0